Kosmos-2187

operational
NORAD ID: 21976 Int'l Des: 1992-030 Owner: VVSR Country: RU
LEOCIRCULAR

About Kosmos-2187

Description loading...

Live Position

Loading 3D Globe...

Upcoming Passes

Altitude History

Altitude vs Time

uPlot chart will show altitude changes over time

Two-Line Element Set

1 21976U 92030A 26061.61845139 .00000000 00000-0 99482-4 0 9997
2 21976 73.9997 252.8607 0050111 143.2576 290.1824 12.55735356546864
Epoch: Mar 2, 2026 • Age: 40 hours

Current Status

Altitude 1439.3 km
Velocity 7.15 km/s
Sub-Earth Point 64.08°N, 109.18°W
Launch Date Jun 3, 1992
Age 33.7 years
Type other

Technical Details

Classification Payload
Mass 60.00 kg
Dry Mass 60.00 kg
Total Mass 60.00 kg
Length 0.80 m
Diameter 0.80 m
Span 0.80 m
Shape Poly
Manufacturer NPOPM
Bus Type Strela-1 11F625
Phase Status In Orbit
Owner/State VVSR/RU

Large Constellations

Loading constellations...